Regional Weather Roundup
Issued by NWS

Home | Current Version | Previous Version | Text Only | Print | Product List | Glossary On
Versions: 1 2 3 4 5 6 7 8 9 10 11 12 13 14 15 16 17 18 19 20 21 22 23 24 25 26 27 28 29 30 31 32 33 34 35 36 37 38 39 40 41 42 43 44 45 46 47 48 49 50
000
ASUS43 KOAX 030902
RWRNE

WEATHER ROUNDUP FOR NEBRASKA
NATIONAL WEATHER SERVICE OMAHA NE
300 AM CST TUE MAR 03 2015

NOTES: SATELLITE DATA IS BEING USED TO AUGMENT CLOUD COVER ABOVE
       12000 FEET.
       "FAIR" INDICATES FEW OR NO CLOUDS BELOW 12,000 FEET WITH NO
       SIGNIFICANT WEATHER AND/OR OBSTRUCTIONS TO VISIBILITY.

  * THESE STATIONS DO NOT REPORT WEATHER SUCH AS RAIN...SNOW OR FOG.

NEZ001>004-019>022-054>056-031000-
NEBRASKA PANHANDLE

CITY           SKY/WX    TMP DP  RH WIND       PRES   REMARKS
SCOTTSBLUFF    CLOUDY    29  27  92 NW3       29.63R FOG
ALLIANCE       CLOUDY    27  26  96 W12       29.63R FOG     WCI  17
CHADRON        MIX PCPN  28  24  85 N23G33    29.69R FOG     WCI  14
KIMBALL        CLOUDY    28  28  99 CALM      29.58R FOG
SIDNEY         FOG       28  27  96 W10       29.61R VSB 1/4 WCI  19
$$

NEZ057>060-069>072-079>082-031000-
SOUTHWEST NEBRASKA

CITY           SKY/WX    TMP DP  RH WIND       PRES   REMARKS
NORTH PLATTE   CLOUDY    28  23  81 E5        29.60F WCI  23
IMPERIAL         N/A     28  24  85 SE3       29.58S FOG
LEXINGTON      CLOUDY    29  23  78 E3        29.61F
MCCOOK         CLOUDY    29  23  78 N8        29.58R WCI  21
$$

NEZ005>010-023>029-035>040-094-031000-
NORTH CENTRAL NEBRASKA

CITY           SKY/WX    TMP DP  RH WIND       PRES   REMARKS
VALENTINE      CLOUDY    31  25  78 SW3       29.61F HAZE
AINSWORTH      CLOUDY    28  26  92 SW7       29.62S FOG     WCI  21
BROKEN BOW     CLOUDY    28  21  75 S6        29.63F WCI  22
ORD            CLOUDY    28  19  69 S5        29.66  WCI  23
$$

NEZ041-046>049-061>064-073>077-083>087-031000-
SOUTH CENTRAL NEBRASKA

CITY           SKY/WX    TMP DP  RH WIND       PRES   REMARKS
GRAND ISLAND   CLOUDY    29  23  78 SE6       29.68F WCI  23
AURORA         CLOUDY    29  24  80 SE6       29.68F WCI  23
HASTINGS       CLOUDY    29  23  78 S8        29.65F WCI  21
HEBRON         CLOUDY    32  27  83 S8        29.69F WCI  25
KEARNEY *      CLOUDY    28  21  74 SE5       29.63F WCI  23
$$

NEZ011>018-030>034-042>045-031000-
NORTHEAST NEBRASKA

CITY           SKY/WX    TMP DP  RH WIND       PRES   REMARKS
NORFOLK        CLOUDY    30  22  72 S10       29.69F WCI  21
ALBION         CLOUDY    30  21  70 S7        29.69F WCI  23
BLAIR          CLOUDY    32  24  72 S10       29.74F WCI  23
COLUMBUS *     CLOUDY    30  19  64 S7        29.73F WCI  23
FREMONT        CLOUDY    32  25  76 SE9G17    29.74F WCI  24
TEKAMAH        CLOUDY    31  22  69 SE7       29.77F WCI  24
$$

NEZ050>053-065>068-078-088>093-031000-
SOUTHEAST NEBRASKA

CITY           SKY/WX    TMP DP  RH WIND       PRES   REMARKS
LINCOLN        CLOUDY    32  27  81 S13       29.73F WCI  22
OMAHA EPPLEY   CLOUDY    32  24  72 S14       29.77F WCI  22
BEATRICE       FOG       32  31  98 S10       29.70F VSB 3/4 WCI  23
FALLS CITY     CLOUDY    33  29  85 S14       29.79F WCI  23
NEBRASKA CITY  CLOUDY    32  26  79 S14       29.75F WCI  22
$$

NEZ044-045-051>053-067-031000-
OMAHA AREA

CITY           SKY/WX    TMP DP  RH WIND       PRES   REMARKS
OMAHA EPPLEY   CLOUDY    32  24  72 S14       29.77F WCI  22
BLAIR          CLOUDY    32  24  72 S10       29.74F WCI  23
FREMONT        CLOUDY    32  25  76 SE9G17    29.74F WCI  24
OFFUTT AFB     CLOUDY    32  25  74 SE9       29.74F WCI  24
WAHOO          CLOUDY    32  24  73 SE8       29.74F WCI  24
$$


USA.gov is the U.S. government's official web portal to all federal, state and local government web resources and services.